When you browse on this site, cookies collect data to enhance your experience and personalize the content and advertising you see.
Visit our Privacy Policy to learn more. By continuing to use the site, you agree to this use of cookies and data.
  • In United Kingdom
  • List of Countries
  • For 7 days
  • Water Temperature
  • Weather Map
  • Weather Widgets
  • user-avatar
    Login

    Hourly Weather Boma

    Today, 19 October, Saturday

    Time Temperature Precipitation Wind Pressure Humidity
    00:00 +20°C° 0.2 mm 0 mps 700 mmHg 97%
    01:00 +19°C° 0 mm 0 mps 700 mmHg 96%
    02:00 +19°C° 0 mm 0 mps 699 mmHg 97%
    03:00 +19°C° 0 mm 0 mps 699 mmHg 98%
    04:00 +19°C° 0 mm 0 mps 698 mmHg 99%
    05:00 +19°C° 0 mm 0 mps 699 mmHg 97%
    06:00 +20°C° 0 mm 0 mps 700 mmHg 96%
    07:00 +20°C° 0 mm 0 mps 700 mmHg 95%
    08:00 +22°C° 0 mm 0 mps 700 mmHg 86%
    09:00 +24°C° 0 mm 0 mps 701 mmHg 78%
    10:00 +26°C° 0 mm 0 mps 701 mmHg 69%
    11:00 +27°C° 0.1 mm 0 mps 700 mmHg 64%
    12:00 +30°C° 0.1 mm 1 mps 700 mmHg 60%
    13:00 +32°C° 0.1 mm 1 mps 699 mmHg 55%
    14:00 +31°C° 0.5 mm 1 mps 698 mmHg 60%
    15:00 +30°C° 0.5 mm 1 mps 698 mmHg 66%
    16:00 +29°C° 0.5 mm 1 mps 697 mmHg 71%
    17:00 +27°C° 1.1 mm 1 mps 697 mmHg 78%
    18:00 +23°C° 1.1 mm 0 mps 698 mmHg 86%
    19:00 +22°C° 1.1 mm 0 mps 698 mmHg 94%
    20:00 +23°C° 1.1 mm 1 mps 699 mmHg 95%
    21:00 +23°C° 1.1 mm 1 mps 699 mmHg 96%
    22:00 +23°C° 1.1 mm 1 mps 700 mmHg 97%
    23:00 +23°C° 1.1 mm 1 mps 700 mmHg 97%

    Tomorrow, 20 October, Sunday

    Time Temperature Precipitation Wind Pressure Humidity
    00:00 +22°C° 1.1 mm 1 mps 700 mmHg 98%
    01:00 +22°C° 1.1 mm 1 mps 700 mmHg 98%
    02:00 +22°C° 1.4 mm 1 mps 699 mmHg 99%
    03:00 +22°C° 1.4 mm 1 mps 699 mmHg 99%
    04:00 +22°C° 1.4 mm 1 mps 699 mmHg 99%
    05:00 +22°C° 0.7 mm 1 mps 700 mmHg 99%
    06:00 +22°C° 0.7 mm 1 mps 700 mmHg 99%
    07:00 +20°C° 0.7 mm 0 mps 701 mmHg 99%
    08:00 +20°C° 0.8 mm 0 mps 701 mmHg 98%
    09:00 +23°C° 0.8 mm 1 mps 701 mmHg 98%
    10:00 +23°C° 0.8 mm 1 mps 701 mmHg 98%
    11:00 +24°C° 0.3 mm 1 mps 701 mmHg 90%
    12:00 +26°C° 0.3 mm 1 mps 700 mmHg 82%
    13:00 +27°C° 0.3 mm 1 mps 699 mmHg 75%
    14:00 +27°C° 0.3 mm 1 mps 699 mmHg 76%
    15:00 +27°C° 0.3 mm 1 mps 699 mmHg 76%
    16:00 +27°C° 0.3 mm 1 mps 698 mmHg 77%
    17:00 +26°C° 0.8 mm 1 mps 699 mmHg 83%
    18:00 +25°C° 0.8 mm 1 mps 699 mmHg 89%
    19:00 +23°C° 0.8 mm 1 mps 699 mmHg 95%
    20:00 +23°C° 1 mm 1 mps 699 mmHg 96%
    21:00 +23°C° 1 mm 1 mps 700 mmHg 97%
    22:00 +20°C° 1 mm 0 mps 700 mmHg 99%
    23:00 +20°C° 1 mm 0 mps 700 mmHg 99%

    Day after tomorrow, 21 October, Monday

    Time Temperature Precipitation Wind Pressure Humidity
    00:00 +22°C° 1 mm 1 mps 700 mmHg 99%
    01:00 +22°C° 1 mm 1 mps 700 mmHg 99%
    02:00 +22°C° 0.9 mm 1 mps 699 mmHg 99%
    03:00 +22°C° 0.9 mm 1 mps 699 mmHg 99%
    04:00 +21°C° 0.9 mm 1 mps 699 mmHg 99%
    05:00 +22°C° 0.6 mm 1 mps 700 mmHg 99%
    06:00 +22°C° 0.6 mm 1 mps 700 mmHg 99%
    07:00 +22°C° 0.6 mm 1 mps 701 mmHg 99%
    08:00 +22°C° 1 mm 1 mps 701 mmHg 99%
    09:00 +22°C° 1 mm 1 mps 701 mmHg 98%
    10:00 +22°C° 1 mm 1 mps 701 mmHg 98%
    11:00 +23°C° 0.6 mm 1 mps 701 mmHg 97%
    12:00 +23°C° 0.6 mm 1 mps 700 mmHg 95%
    13:00 +24°C° 0.6 mm 1 mps 699 mmHg 93%
    14:00 +24°C° 0.1 mm 1 mps 699 mmHg 94%
    15:00 +21°C° 0.1 mm 0 mps 698 mmHg 95%
    16:00 +21°C° 0.1 mm 0 mps 698 mmHg 95%
    17:00 +21°C° 0 mm 0 mps 698 mmHg 96%
    18:00 +20°C° 0 mm 0 mps 698 mmHg 97%
    19:00 +20°C° 0 mm 0 mps 698 mmHg 99%
    20:00 +20°C° 0 mm 0 mps 699 mmHg 99%
    21:00 +20°C° 0 mm 0 mps 699 mmHg 99%
    22:00 +19°C° 0 mm 0 mps 699 mmHg 99%
    23:00 +19°C° 0 mm 0 mps 699 mmHg 99%

    22 October, Tuesday

    Time Temperature Precipitation Wind Pressure Humidity
    00:00 +19°C° 0 mm 0 mps 699 mmHg 99%
    01:00 +19°C° 0 mm 0 mps 698 mmHg 99%
    02:00 +19°C° 0 mm 0 mps 698 mmHg 99%
    03:00 +19°C° 0 mm 0 mps 698 mmHg 99%
    04:00 +19°C° 0 mm 0 mps 698 mmHg 98%
    05:00 +19°C° 1.1 mm 0 mps 699 mmHg 98%
    06:00 +19°C° 1.1 mm 0 mps 699 mmHg 98%
    07:00 +20°C° 1.1 mm 0 mps 700 mmHg 98%
    08:00 +21°C° 0.1 mm 0 mps 700 mmHg 91%
    09:00 +25°C° 0.1 mm 1 mps 701 mmHg 84%
    10:00 +26°C° 0.1 mm 1 mps 701 mmHg 77%
    11:00 +26°C° 1 mm 2 mps 700 mmHg 81%
    12:00 +27°C° 1 mm 2 mps 699 mmHg 84%
    13:00 +27°C° 1 mm 2 mps 698 mmHg 88%
    14:00 +27°C° 0.4 mm 2 mps 698 mmHg 82%
    15:00 +28°C° 0.4 mm 2 mps 698 mmHg 76%
    16:00 +28°C° 0.4 mm 2 mps 698 mmHg 70%
    17:00 +26°C° 0 mm 1 mps 698 mmHg 77%
    18:00 +25°C° 0 mm 1 mps 698 mmHg 84%
    19:00 +21°C° 0 mm 0 mps 698 mmHg 90%
    20:00 +21°C° 0.1 mm 0 mps 698 mmHg 92%
    21:00 +20°C° 0.1 mm 0 mps 698 mmHg 94%
    22:00 +20°C° 0.1 mm 0 mps 699 mmHg 96%
    23:00 +20°C° 0.7 mm 0 mps 699 mmHg 96%

    23 October, Wednesday

    Time Temperature Precipitation Wind Pressure Humidity
    00:00 +19°C° 0.7 mm 0 mps 698 mmHg 97%
    01:00 +19°C° 0.7 mm 0 mps 698 mmHg 98%
    02:00 +19°C° 0.6 mm 0 mps 698 mmHg 98%
    03:00 +19°C° 0.6 mm 0 mps 698 mmHg 98%
    04:00 +19°C° 0.6 mm 0 mps 698 mmHg 98%
    05:00 +19°C° 0.3 mm 0 mps 698 mmHg 98%
    06:00 +19°C° 0.3 mm 0 mps 699 mmHg 98%
    07:00 +20°C° 0.3 mm 0 mps 699 mmHg 98%
    08:00 +21°C° 0.2 mm 0 mps 700 mmHg 94%
    09:00 +22°C° 0.2 mm 0 mps 700 mmHg 89%
    10:00 +26°C° 0.2 mm 1 mps 700 mmHg 84%
    11:00 +26°C° 1.7 mm 1 mps 699 mmHg 85%
    12:00 +25°C° 1.7 mm 0 mps 698 mmHg 86%
    13:00 +25°C° 1.7 mm 0 mps 697 mmHg 86%
    14:00 +27°C° 0.7 mm 1 mps 697 mmHg 85%
    15:00 +27°C° 0.7 mm 1 mps 697 mmHg 84%
    16:00 +27°C° 0.7 mm 1 mps 697 mmHg 83%
    17:00 +26°C° 1.2 mm 1 mps 697 mmHg 87%
    18:00 +22°C° 1.2 mm 0 mps 697 mmHg 91%
    19:00 +21°C° 1.2 mm 0 mps 698 mmHg 96%
    20:00 +21°C° 1.3 mm 0 mps 698 mmHg 97%
    21:00 +22°C° 1.3 mm 1 mps 698 mmHg 97%
    22:00 +22°C° 1.3 mm 1 mps 699 mmHg 98%
    23:00 +22°C° 1.2 mm 1 mps 699 mmHg 98%

    24 October, Thursday

    Time Temperature Precipitation Wind Pressure Humidity
    00:00 +22°C° 1.2 mm 1 mps 699 mmHg 99%
    01:00 +20°C° 1.2 mm 0 mps 698 mmHg 99%
    02:00 +20°C° 0.7 mm 0 mps 698 mmHg 99%
    03:00 +20°C° 0.7 mm 0 mps 698 mmHg 99%
    04:00 +20°C° 0.7 mm 0 mps 698 mmHg 99%
    05:00 +20°C° 0.6 mm 0 mps 699 mmHg 99%
    06:00 +20°C° 0.6 mm 0 mps 699 mmHg 99%
    07:00 +20°C° 0.6 mm 0 mps 699 mmHg 99%
    08:00 +21°C° 0.2 mm 0 mps 700 mmHg 93%
    09:00 +23°C° 0.2 mm 0 mps 700 mmHg 87%
    10:00 +24°C° 0.2 mm 0 mps 701 mmHg 82%
    11:00 +26°C° 0 mm 0 mps 700 mmHg 73%
    12:00 +30°C° 0 mm 1 mps 699 mmHg 63%
    13:00 +31°C° 0 mm 1 mps 698 mmHg 54%
    14:00 +30°C° 0.4 mm 1 mps 698 mmHg 61%
    15:00 +29°C° 0.4 mm 1 mps 697 mmHg 69%
    16:00 +29°C° 0.4 mm 1 mps 697 mmHg 76%
    17:00 +27°C° 1.1 mm 1 mps 697 mmHg 82%
    18:00 +25°C° 1.1 mm 1 mps 698 mmHg 89%
    19:00 +23°C° 1.1 mm 1 mps 698 mmHg 95%
    20:00 +23°C° 0.3 mm 1 mps 698 mmHg 96%
    21:00 +21°C° 0.3 mm 0 mps 699 mmHg 96%
    22:00 +21°C° 0.3 mm 0 mps 699 mmHg 97%
    23:00 +21°C° 0.3 mm 0 mps 699 mmHg 97%
    Show more